Regional Weather Roundup
Issued by NWS State College, PA

Home | Current Version | Previous Version | Graphics & Text | Print | Product List | Glossary On
Versions: 1 2 3 4 5 6 7 8 9 10 11 12 13 14 15 16 17 18 19 20 21 22 23 24 25 26 27 28 29 30 31 32 33 34 35 36 37 38 39 40 41 42 43 44 45 46 47 48 49 50
000
ASUS41 KCTP 200910
RWRCTP
REGIONAL WEATHER ROUNDUP
NATIONAL WEATHER SERVICE STATE COLLEGE PA
500 AM EDT WED SEP 20 2017

Note: "fair" indicates few or no clouds below 12,000 feet with no
significant weather and/or obstructions to visibility.

* = STATION THAT DOES NOT REPORT PRECIPITATION /E.G. RAIN...SNOW...ETC/
    THUNDER OR FOG.

PAZ002>004-007>009-013>016-020>023-029>032-201000-
WESTERN PENNSYLVANIA

CITY           SKY/WX    TMP DP  RH WIND       PRES   REMARKS
ERIE           CLOUDY    66  62  87 CALM      29.98R
MEADVILLE      CLEAR     60  60 100 CALM      30.02R
FRANKLIN*      FOG       57  56  96 CALM      30.03R VSB 1/4
NEW CASTLE     FAIR      61  61 100 E3        30.01R FOG
BEAVER COUNTY  NOT AVBL
BUTLER*        CLOUDY    57  56  96 NE3       30.01R FOG
PITTSBURGH INT CLOUDY    64  61  90 CALM      29.99S
PITTSBURGH     CLEAR     64  60  87 CALM      29.99R FOG
INDIANA*       CLEAR     57  55  94 CALM      30.04S
LATROBE        CLEAR     55  55 100 CALM      30.01R FOG
WASHINGTON CO*   N/A     57  55  94 CALM      30.00R VSB 1/2
$$

PAZ004>006-010>012-017>019-024>028-033>037-041-042-045-046-049>053-201000-
CENTRAL PENNSYLVANIA

CITY           SKY/WX    TMP DP  RH WIND       PRES   REMARKS
BRADFORD       CLEAR     53  53 100 CALM      30.05S
DUBOIS         CLEAR     57  55  93 NE5       30.02S FOG
CLEARFIELD     FOG       55  55 100 CALM      30.03R VSB 1/4
JOHNSTOWN      FOG       56  55  97 SW5       30.03S VSB 1/4
ALTOONA        FOG       55  55 100 CALM      30.02R VSB 1/4
STATE COLLEGE  FOG       56  55  99 CALM      30.01R VSB 3/4
WILLIAMSPORT   FOG       62  61  96 W5        29.97S VSB 1
SELINSGROVE    MOCLDY    57  57 100 CALM      29.97R FOG
FT INDIANTOWN  MOCLDY    71  61  71 N9        29.92S
CAPITAL CITY   CLOUDY    68  62  81 W7        29.93S
HARRISBURG     CLOUDY    70  64  81 W12       29.91F
YORK           CLOUDY    66  64  93 W6        29.93S
$$

PAZ038>040-043-044-047-048-054-055-060>062-067>071-201000-
EASTERN PENNSYLVANIA

CITY           SKY/WX    TMP DP  RH WIND       PRES   REMARKS
SCRANTON       CLEAR     61  59  93 S3        29.96S
MOUNT POCONO   CLOUDY    61  59  93 N9        29.96S
ALLENTOWN      PTCLDY    70  60  70 N7        29.89S
QUAKERTOWN*    MOSUNNY   68  63  83 N10G17    29.89S
READING        CLOUDY    70  63  78 NW8       29.89R
LANCASTER      PTCLDY    70  63  78 NW8       29.91R
COATESVILLE    CLOUDY    70  63  78 N10       29.91R
POTTSTOWN      CLOUDY    69  63  81 N9        29.89S
BLUE BELL      PTCLDY    68  63  83 N5        29.87F
DOYLESTOWN     MOCLDY    69  63  81 N10       29.86S
WILLOW GROVE   NOT AVBL
NORTH PHILA    MOCLDY    72  63  73 N15       29.85S
PHILADELPHIA   PTCLDY    71  63  75 N13       29.84F
$$



USA.gov is the U.S. government's official web portal to all federal, state and local government web resources and services.